Location: Hoyos del Collado
(40.3594°N, 5.2003°W)
Time: 12:00:23
(UTC+00:00)

USA 229 - Pass Details

Date: 18 April 2024
Orbit: 890 x 1322 km, 63.4° (Epoch: 18 May)

Event Time Altitude Azimuth Distance (km) Brightness Sun altitude
Rises 19:49:57 0° 176° (S) 3,497 6.1 -9.2°
Reaches altitude 10° 19:52:48 10° 163° (SSE) 2,587 5.4 -9.7°
Maximum altitude 19:57:36 25° 110° (ESE) 1,789 4.3 -10.5°
Drops below altitude 10° 20:02:41 10° 57° (ENE) 2,765 5.6 -11.4°
Sets 20:05:49 0° 45° (NE) 3,790 6.4 -11.9°
